Time,TemperatureF,DewpointF,PressureIn,WindDirection,WindDirectionDegrees,WindSpeedMPH,WindSpeedGustMPH,Humidity,HourlyPrecipIn,Conditions,Clouds,dailyrainin,SoftwareType,DateUTC
2013-08-14 00:01:00,57.7,31.0,30.05,SW,219,0.0,0.0,36,0.00,,---,0.00,VWS V14.01,2013-08-14 06:01:00,
2013-08-14 00:06:00,57.4,30.7,30.05,WSW,249,0.0,0.0,36,0.00,,---,0.00,VWS V14.01,2013-08-14 06:06:00,
2013-08-14 00:11:00,57.6,30.8,30.05,WSW,249,0.0,0.0,36,0.00,,---,0.00,VWS V14.01,2013-08-14 06:11:00,
2013-08-14 00:16:00,57.9,31.1,30.05,SW,222,0.0,0.0,36,0.00,,---,0.00,VWS V14.01,2013-08-14 06:16:00,
2013-08-14 00:21:00,58.1,30.6,30.05,SW,225,3.1,3.1,35,0.00,,---,0.00,VWS V14.01,2013-08-14 06:21:00,
2013-08-14 00:26:00,58.5,30.9,30.05,SSW,204,3.1,4.9,35,0.00,,---,0.00,VWS V14.01,2013-08-14 06:26:00,
2013-08-14 00:31:00,59.2,31.6,30.05,SSW,197,0.0,0.0,35,0.00,,---,0.00,VWS V14.01,2013-08-14 06:31:00,
2013-08-14 00:36:00,59.4,31.0,30.05,SSW,212,0.0,0.0,34,0.00,,---,0.00,VWS V14.01,2013-08-14 06:36:00,
2013-08-14 00:41:00,59.2,30.9,30.05,SW,218,0.0,0.0,34,0.00,,---,0.00,VWS V14.01,2013-08-14 06:41:00,
2013-08-14 00:46:00,58.5,30.9,30.05,WSW,239,0.0,0.0,35,0.00,,---,0.00,VWS V14.01,2013-08-14 06:46:00,
2013-08-14 00:51:00,57.9,30.5,30.05,WSW,251,0.0,0.0,35,0.00,,---,0.00,VWS V14.01,2013-08-14 06:51:00,
2013-08-14 00:56:00,57.2,29.8,30.05,WSW,251,0.0,0.0,35,0.00,,---,0.00,VWS V14.01,2013-08-14 06:56:00,
2013-08-14 01:01:00,57.0,30.4,30.05,WSW,251,0.0,0.0,36,0.00,,---,0.00,VWS V14.01,2013-08-14 07:01:00,
2013-08-14 01:06:00,56.8,30.2,30.05,WSW,251,0.0,0.0,36,0.00,,---,0.00,VWS V14.01,2013-08-14 07:06:00,
2013-08-14 01:11:00,56.8,30.2,30.05,WSW,251,0.0,0.0,36,0.00,,---,0.00,VWS V14.01,2013-08-14 07:11:00,
2013-08-14 01:16:00,56.5,29.9,30.05,WSW,251,0.0,0.0,36,0.00,,---,0.00,VWS V14.01,2013-08-14 07:16:00,
2013-08-14 01:21:00,56.7,30.7,30.05,WSW,251,0.0,0.0,37,0.00,,---,0.00,VWS V14.01,2013-08-14 07:21:00,
2013-08-14 01:26:00,56.3,30.4,30.05,WSW,251,0.0,0.0,37,0.00,,---,0.00,VWS V14.01,2013-08-14 07:26:00,
2013-08-14 01:31:00,55.9,30.7,30.05,WSW,251,0.0,0.0,38,0.00,,---,0.00,VWS V14.01,2013-08-14 07:31:00,
2013-08-14 01:36:00,55.6,30.4,30.05,WSW,251,0.0,0.0,38,0.00,,---,0.00,VWS V14.01,2013-08-14 07:36:00,
2013-08-14 01:41:00,55.2,30.7,30.05,WSW,251,0.0,0.0,39,0.00,,---,0.00,VWS V14.01,2013-08-14 07:41:00,
2013-08-14 01:46:00,55.2,30.7,30.05,WSW,251,0.0,0.0,39,0.00,,---,0.00,VWS V14.01,2013-08-14 07:46:00,
2013-08-14 01:51:00,55.2,30.7,30.05,WSW,251,0.0,0.0,39,0.00,,---,0.00,VWS V14.01,2013-08-14 07:51:00,
2013-08-14 01:56:00,55.4,30.2,30.05,WSW,251,0.0,0.0,38,0.00,,---,0.00,VWS V14.01,2013-08-14 07:56:00,
2013-08-14 02:01:00,55.4,30.2,30.05,WSW,251,0.0,0.0,38,0.00,,---,0.00,VWS V14.01,2013-08-14 08:01:00,
2013-08-14 02:06:00,54.9,30.4,30.05,WSW,251,0.0,0.0,39,0.00,,---,0.00,VWS V14.01,2013-08-14 08:06:00,
2013-08-14 02:11:00,54.5,30.1,30.05,SW,217,2.7,2.7,39,0.00,,---,0.00,VWS V14.01,2013-08-14 08:11:00,
2013-08-14 02:16:00,55.0,30.5,30.05,SSW,198,4.0,5.4,39,0.00,,---,0.00,VWS V14.01,2013-08-14 08:16:00,
2013-08-14 02:21:00,55.9,30.7,30.05,SW,235,3.6,5.4,38,0.00,,---,0.00,VWS V14.01,2013-08-14 08:21:00,
2013-08-14 02:26:00,56.3,30.4,30.05,WSW,256,2.7,5.4,37,0.00,,---,0.00,VWS V14.01,2013-08-14 08:26:00,
2013-08-14 02:31:00,56.1,30.2,30.05,SW,235,0.0,0.0,37,0.00,,---,0.00,VWS V14.01,2013-08-14 08:31:00,
2013-08-14 02:36:00,55.6,29.7,30.05,SW,220,0.0,0.0,37,0.00,,---,0.00,VWS V14.01,2013-08-14 08:36:00,
2013-08-14 02:41:00,55.4,29.6,30.05,SSW,193,3.1,4.0,37,0.00,,---,0.00,VWS V14.01,2013-08-14 08:41:00,
2013-08-14 02:46:00,55.9,30.1,30.05,SSW,208,2.7,4.0,37,0.00,,---,0.00,VWS V14.01,2013-08-14 08:46:00,
2013-08-14 02:51:00,56.1,30.2,30.05,SW,230,0.0,4.0,37,0.00,,---,0.00,VWS V14.01,2013-08-14 08:51:00,
2013-08-14 02:56:00,55.2,29.4,30.05,SW,234,0.0,4.0,37,0.00,,---,0.00,VWS V14.01,2013-08-14 08:56:00,
2013-08-14 03:01:00,54.1,28.5,30.05,SW,234,0.0,0.0,37,0.00,,---,0.00,VWS V14.01,2013-08-14 09:01:00,
2013-08-14 03:06:00,53.6,28.6,30.05,SW,234,0.0,0.0,38,0.00,,---,0.00,VWS V14.01,2013-08-14 09:06:00,
2013-08-14 03:11:00,53.1,28.8,30.05,SW,234,0.0,0.0,39,0.00,,---,0.00,VWS V14.01,2013-08-14 09:11:00,
2013-08-14 03:16:00,52.7,30.3,30.05,SW,234,0.0,0.0,42,0.00,,---,0.00,VWS V14.01,2013-08-14 09:16:00,
2013-08-14 03:21:00,52.5,30.1,30.05,SW,234,0.0,0.0,42,0.00,,---,0.00,VWS V14.01,2013-08-14 09:21:00,
2013-08-14 03:26:00,52.5,30.1,30.05,SW,234,0.0,0.0,42,0.00,,---,0.00,VWS V14.01,2013-08-14 09:26:00,
2013-08-14 03:31:00,52.3,30.0,30.05,SW,234,0.0,0.0,42,0.00,,---,0.00,VWS V14.01,2013-08-14 09:31:00,
2013-08-14 03:36:00,52.5,30.1,30.05,SW,230,3.1,3.1,42,0.00,,---,0.00,VWS V14.01,2013-08-14 09:36:00,
2013-08-14 03:41:00,52.7,30.3,30.05,SW,227,0.0,3.6,42,0.00,,---,0.00,VWS V14.01,2013-08-14 09:41:00,
2013-08-14 03:46:00,52.5,30.1,30.05,SW,227,0.0,0.0,42,0.00,,---,0.00,VWS V14.01,2013-08-14 09:46:00,
2013-08-14 03:51:00,52.5,30.1,30.05,SW,227,0.0,0.0,42,0.00,,---,0.00,VWS V14.01,2013-08-14 09:51:00,
2013-08-14 03:56:00,52.5,30.1,30.05,SW,227,0.0,0.0,42,0.00,,---,0.00,VWS V14.01,2013-08-14 09:56:00,
2013-08-14 04:01:00,52.0,29.6,30.05,SW,227,0.0,0.0,42,0.00,,---,0.00,VWS V14.01,2013-08-14 10:01:00,
2013-08-14 04:06:00,51.6,30.4,30.05,SW,227,0.0,0.0,44,0.00,,---,0.00,VWS V14.01,2013-08-14 10:06:00,
2013-08-14 04:11:00,51.3,30.7,30.05,SW,227,0.0,0.0,45,0.00,,---,0.00,VWS V14.01,2013-08-14 10:11:00,
2013-08-14 04:16:00,51.4,30.8,30.05,SSW,202,0.0,0.0,45,0.00,,---,0.00,VWS V14.01,2013-08-14 10:16:00,
2013-08-14 04:21:00,52.0,30.8,30.02,WSW,239,0.0,3.1,44,0.00,,---,0.00,VWS V14.01,2013-08-14 10:21:00,
2013-08-14 04:26:00,51.8,30.0,30.02,WSW,239,0.0,3.1,43,0.00,,---,0.00,VWS V14.01,2013-08-14 10:26:00,
2013-08-14 04:31:00,51.3,30.1,30.02,WSW,239,0.0,0.0,44,0.00,,---,0.00,VWS V14.01,2013-08-14 10:31:00,
2013-08-14 04:36:00,50.9,30.3,30.05,WSW,239,0.0,0.0,45,0.00,,---,0.00,VWS V14.01,2013-08-14 10:36:00,
2013-08-14 04:41:00,50.5,30.5,30.05,South,177,2.7,4.0,46,0.00,,---,0.00,VWS V14.01,2013-08-14 10:41:00,
2013-08-14 04:46:00,50.9,30.9,30.05,SSW,198,2.7,2.7,46,0.00,,---,0.00,VWS V14.01,2013-08-14 10:46:00,
2013-08-14 04:51:00,51.3,31.2,30.05,SW,224,0.0,3.1,46,0.00,,---,0.00,VWS V14.01,2013-08-14 10:51:00,
2013-08-14 04:56:00,50.9,30.9,30.05,SW,224,0.0,3.1,46,0.00,,---,0.00,VWS V14.01,2013-08-14 10:56:00,
2013-08-14 05:01:00,50.5,30.5,30.05,SW,224,0.0,0.0,46,0.00,,---,0.00,VWS V14.01,2013-08-14 11:01:00,
2013-08-14 05:06:00,50.2,30.8,30.05,SW,224,0.0,0.0,47,0.00,,---,0.00,VWS V14.01,2013-08-14 11:06:00,
2013-08-14 05:11:00,50.0,30.6,30.05,SW,224,0.0,0.0,47,0.00,,---,0.00,VWS V14.01,2013-08-14 11:11:00,
2013-08-14 05:16:00,50.2,30.8,30.05,SW,231,0.0,0.0,47,0.00,,---,0.00,VWS V14.01,2013-08-14 11:16:00,
2013-08-14 05:21:00,50.5,31.1,30.05,SSW,209,0.0,3.1,47,0.00,,---,0.00,VWS V14.01,2013-08-14 11:21:00,
2013-08-14 05:26:00,50.5,30.5,30.05,SSW,209,0.0,3.1,46,0.00,,---,0.00,VWS V14.01,2013-08-14 11:26:00,
2013-08-14 05:31:00,50.4,30.4,30.05,SSW,209,0.0,0.0,46,0.00,,---,0.00,VWS V14.01,2013-08-14 11:31:00,
2013-08-14 05:36:00,50.2,30.2,30.05,SSW,209,0.0,0.0,46,0.00,,---,0.00,VWS V14.01,2013-08-14 11:36:00,
2013-08-14 05:41:00,49.8,30.4,30.05,SSW,209,0.0,0.0,47,0.00,,---,0.00,VWS V14.01,2013-08-14 11:41:00,
2013-08-14 05:46:00,49.5,30.1,30.05,SSW,209,0.0,0.0,47,0.00,,---,0.00,VWS V14.01,2013-08-14 11:46:00,
2013-08-14 05:51:00,49.1,29.8,30.05,SW,214,0.0,0.0,47,0.00,,---,0.00,VWS V14.01,2013-08-14 11:51:00,
2013-08-14 05:56:00,49.3,30.4,30.05,SW,214,0.0,0.0,48,0.00,,---,0.00,VWS V14.01,2013-08-14 11:56:00,
2013-08-14 06:01:00,48.9,30.1,30.05,SW,229,0.0,0.0,48,0.00,,---,0.00,VWS V14.01,2013-08-14 12:01:00,
2013-08-14 06:06:00,48.9,30.1,30.05,SW,229,0.0,0.0,48,0.00,,---,0.00,VWS V14.01,2013-08-14 12:06:00,
2013-08-14 06:11:00,48.9,30.6,30.05,SW,229,0.0,0.0,49,0.00,,---,0.00,VWS V14.01,2013-08-14 12:11:00,
2013-08-14 06:16:00,48.7,29.9,30.05,SW,229,0.0,0.0,48,0.00,,---,0.00,VWS V14.01,2013-08-14 12:16:00,
2013-08-14 06:21:00,48.7,31.0,30.05,SW,229,0.0,0.0,50,0.00,,---,0.00,VWS V14.01,2013-08-14 12:21:00,
2013-08-14 06:26:00,48.7,31.0,30.05,SW,229,0.0,0.0,50,0.00,,---,0.00,VWS V14.01,2013-08-14 12:26:00,
2013-08-14 06:31:00,48.7,31.0,30.05,SW,229,0.0,0.0,50,0.00,,---,0.00,VWS V14.01,2013-08-14 12:31:00,
2013-08-14 06:36:00,49.1,31.3,30.05,SSE,149,0.0,0.0,50,0.00,,---,0.00,VWS V14.01,2013-08-14 12:36:00,
2013-08-14 06:41:00,50.2,31.8,30.05,South,189,3.1,4.0,49,0.00,,---,0.00,VWS V14.01,2013-08-14 12:41:00,
2013-08-14 06:46:00,50.7,31.8,30.05,SW,236,2.7,3.1,48,0.00,,---,0.00,VWS V14.01,2013-08-14 12:46:00,
2013-08-14 06:51:00,50.5,31.1,30.05,SW,236,0.0,3.1,47,0.00,,---,0.00,VWS V14.01,2013-08-14 12:51:00,
2013-08-14 06:56:00,50.2,30.8,30.05,SSW,203,0.0,3.1,47,0.00,,---,0.00,VWS V14.01,2013-08-14 12:56:00,
2013-08-14 07:01:00,50.0,30.6,30.05,SSW,199,0.0,0.0,47,0.00,,---,0.00,VWS V14.01,2013-08-14 13:01:00,
2013-08-14 07:06:00,49.6,30.8,30.05,SSW,202,0.0,0.0,48,0.00,,---,0.00,VWS V14.01,2013-08-14 13:06:00,
2013-08-14 07:11:00,49.8,31.4,30.05,SSW,202,0.0,0.0,49,0.00,,---,0.00,VWS V14.01,2013-08-14 13:11:00,
2013-08-14 07:16:00,50.4,31.4,30.05,SSW,202,0.0,0.0,48,0.00,,---,0.00,VWS V14.01,2013-08-14 13:16:00,
2013-08-14 07:21:00,51.3,32.8,30.05,SSW,202,0.0,0.0,49,0.00,,---,0.00,VWS V14.01,2013-08-14 13:21:00,
2013-08-14 07:26:00,52.0,32.9,30.05,SSW,202,0.0,0.0,48,0.00,,---,0.00,VWS V14.01,2013-08-14 13:26:00,
2013-08-14 07:31:00,52.9,33.7,30.05,SSW,202,0.0,0.0,48,0.00,,---,0.00,VWS V14.01,2013-08-14 13:31:00,
2013-08-14 07:36:00,54.0,34.7,30.05,SSW,202,0.0,0.0,48,0.00,,---,0.00,VWS V14.01,2013-08-14 13:36:00,
2013-08-14 07:41:00,54.7,34.3,30.05,SSW,202,0.0,0.0,46,0.00,,---,0.00,VWS V14.01,2013-08-14 13:41:00,
2013-08-14 07:46:00,55.4,34.4,30.05,SSW,202,0.0,0.0,45,0.00,,---,0.00,VWS V14.01,2013-08-14 13:46:00,
2013-08-14 07:51:00,56.8,35.7,30.05,SSW,202,0.0,0.0,45,0.00,,---,0.00,VWS V14.01,2013-08-14 13:51:00,
2013-08-14 07:56:00,57.7,36.0,30.05,SSW,202,0.0,0.0,44,0.00,,---,0.00,VWS V14.01,2013-08-14 13:56:00,
2013-08-14 08:01:00,57.6,34.1,30.05,SE,125,0.0,0.0,41,0.00,,---,0.00,VWS V14.01,2013-08-14 14:01:00,
2013-08-14 08:06:00,57.2,33.7,30.05,SE,125,0.0,0.0,41,0.00,,---,0.00,VWS V14.01,2013-08-14 14:06:00,
2013-08-14 08:11:00,57.6,33.4,30.05,SE,125,0.0,0.0,40,0.00,,---,0.00,VWS V14.01,2013-08-14 14:11:00,
2013-08-14 08:16:00,57.7,31.7,30.05,SE,125,0.0,0.0,37,0.00,,---,0.00,VWS V14.01,2013-08-14 14:16:00,
2013-08-14 08:21:00,57.9,32.5,30.05,SE,125,0.0,0.0,38,0.00,,---,0.00,VWS V14.01,2013-08-14 14:21:00,
2013-08-14 08:26:00,58.3,32.2,30.05,SE,125,0.0,0.0,37,0.00,,---,0.00,VWS V14.01,2013-08-14 14:26:00,
2013-08-14 08:31:00,58.8,32.6,30.05,SE,125,0.0,0.0,37,0.00,,---,0.00,VWS V14.01,2013-08-14 14:31:00,
2013-08-14 08:36:00,59.9,32.9,30.05,SE,125,0.0,0.0,36,0.00,,---,0.00,VWS V14.01,2013-08-14 14:36:00,
2013-08-14 08:41:00,60.8,33.0,30.05,ESE,111,0.0,0.0,35,0.00,,---,0.00,VWS V14.01,2013-08-14 14:41:00,
2013-08-14 08:46:00,61.5,32.9,30.05,ESE,111,0.0,0.0,34,0.00,,---,0.00,VWS V14.01,2013-08-14 14:46:00,
2013-08-14 08:51:00,62.1,32.6,30.05,ESE,106,0.0,0.0,33,0.00,,---,0.00,VWS V14.01,2013-08-14 14:51:00,
2013-08-14 08:56:00,62.6,33.1,30.05,East,83,0.0,0.0,33,0.00,,---,0.00,VWS V14.01,2013-08-14 14:56:00,
2013-08-14 09:01:00,63.9,34.2,30.05,East,83,0.0,0.0,33,0.00,,---,0.00,VWS V14.01,2013-08-14 15:01:00,
2013-08-14 09:06:00,64.6,33.3,30.05,East,83,0.0,0.0,31,0.00,,---,0.00,VWS V14.01,2013-08-14 15:06:00,
2013-08-14 09:11:00,65.5,33.3,30.05,East,83,0.0,0.0,30,0.00,,---,0.00,VWS V14.01,2013-08-14 15:11:00,
2013-08-14 09:16:00,65.7,32.6,30.05,ENE,62,0.0,0.0,29,0.00,,---,0.00,VWS V14.01,2013-08-14 15:16:00,
2013-08-14 09:21:00,65.8,32.7,30.05,North,0,0.0,2.2,29,0.00,,---,0.00,VWS V14.01,2013-08-14 15:21:00,
2013-08-14 09:26:00,66.6,32.5,30.05,SW,233,0.0,2.2,28,0.00,,---,0.00,VWS V14.01,2013-08-14 15:26:00,
2013-08-14 09:31:00,66.9,31.9,30.05,West,280,0.0,0.0,27,0.00,,---,0.00,VWS V14.01,2013-08-14 15:31:00,
2013-08-14 09:36:00,67.1,31.1,30.05,North,6,0.0,0.0,26,0.00,,---,0.00,VWS V14.01,2013-08-14 15:36:00,
2013-08-14 09:41:00,67.6,32.5,30.05,North,6,0.0,0.0,27,0.00,,---,0.00,VWS V14.01,2013-08-14 15:41:00,
2013-08-14 09:46:00,68.4,32.2,30.05,North,6,0.0,0.0,26,0.00,,---,0.00,VWS V14.01,2013-08-14 15:46:00,
2013-08-14 09:51:00,69.4,33.1,30.05,ENE,74,0.0,0.0,26,0.00,,---,0.00,VWS V14.01,2013-08-14 15:51:00,
2013-08-14 09:56:00,70.3,31.9,30.05,ENE,62,0.0,3.6,24,0.00,,---,0.00,VWS V14.01,2013-08-14 15:56:00,
2013-08-14 10:01:00,71.4,33.8,30.05,ESE,105,0.0,0.0,25,0.00,,---,0.00,VWS V14.01,2013-08-14 16:01:00,
2013-08-14 10:06:00,72.9,34.0,30.05,ENE,60,3.1,3.1,24,0.00,,---,0.00,VWS V14.01,2013-08-14 16:06:00,
2013-08-14 10:11:00,73.4,33.4,30.05,ENE,60,0.0,3.1,23,0.00,,---,0.00,VWS V14.01,2013-08-14 16:11:00,
2013-08-14 10:16:00,73.9,32.7,30.05,ESE,118,3.1,3.6,22,0.00,,---,0.00,VWS V14.01,2013-08-14 16:16:00,
2013-08-14 10:21:00,74.5,33.2,30.05,East,85,2.2,3.6,22,0.00,,---,0.00,VWS V14.01,2013-08-14 16:21:00,
2013-08-14 10:26:00,75.0,33.6,30.05,ENE,76,2.2,4.0,22,0.00,,---,0.00,VWS V14.01,2013-08-14 16:26:00,
2013-08-14 10:31:00,75.9,33.2,30.05,ENE,76,0.0,0.0,21,0.00,,---,0.00,VWS V14.01,2013-08-14 16:31:00,
2013-08-14 10:36:00,76.3,33.5,30.02,NNE,28,0.0,0.0,21,0.00,,---,0.00,VWS V14.01,2013-08-14 16:36:00,
2013-08-14 10:41:00,75.2,32.6,30.02,North,357,0.0,2.7,21,0.00,,---,0.00,VWS V14.01,2013-08-14 16:41:00,
2013-08-14 10:46:00,75.4,32.8,30.02,NE,47,0.0,0.0,21,0.00,,---,0.00,VWS V14.01,2013-08-14 16:46:00,
2013-08-14 10:51:00,75.6,32.9,30.05,NNE,17,0.0,4.0,21,0.00,,---,0.00,VWS V14.01,2013-08-14 16:51:00,
2013-08-14 10:56:00,75.7,33.1,30.05,NE,45,0.0,4.0,21,0.00,,---,0.00,VWS V14.01,2013-08-14 16:56:00,
2013-08-14 11:02:00,76.6,33.8,30.05,NNW,340,2.7,2.7,21,0.00,,---,0.00,VWS V14.01,2013-08-14 17:02:00,
2013-08-14 11:07:00,76.6,32.6,30.05,NNW,334,0.0,4.0,20,0.00,,---,0.00,VWS V14.01,2013-08-14 17:07:00,
2013-08-14 11:12:00,76.1,33.4,30.05,NNE,19,0.0,4.0,21,0.00,,---,0.00,VWS V14.01,2013-08-14 17:12:00,
2013-08-14 11:17:00,75.9,33.2,30.05,North,10,3.1,3.1,21,0.00,,---,0.00,VWS V14.01,2013-08-14 17:17:00,
2013-08-14 11:22:00,76.1,33.4,30.05,NNE,23,0.0,3.1,21,0.00,,---,0.00,VWS V14.01,2013-08-14 17:22:00,
2013-08-14 11:27:00,76.5,33.7,30.05,NNE,23,0.0,3.1,21,0.00,,---,0.00,VWS V14.01,2013-08-14 17:27:00,
2013-08-14 11:32:00,76.3,33.5,30.05,NNE,14,0.0,2.2,21,0.00,,---,0.00,VWS V14.01,2013-08-14 17:32:00,
2013-08-14 11:37:00,76.6,33.8,30.05,North,5,0.0,3.1,21,0.00,,---,0.00,VWS V14.01,2013-08-14 17:37:00,
2013-08-14 11:42:00,76.8,34.0,30.05,NNW,341,0.0,3.1,21,0.00,,---,0.00,VWS V14.01,2013-08-14 17:42:00,
2013-08-14 11:47:00,77.0,32.9,30.05,NE,35,0.0,0.0,20,0.00,,---,0.00,VWS V14.01,2013-08-14 17:47:00,
2013-08-14 11:52:00,77.0,32.9,30.02,North,349,0.0,0.0,20,0.00,,---,0.00,VWS V14.01,2013-08-14 17:52:00,
2013-08-14 11:57:00,77.5,33.3,30.02,North,0,0.0,3.6,20,0.00,,---,0.00,VWS V14.01,2013-08-14 17:57:00,
2013-08-14 12:02:00,77.9,33.6,30.02,NE,48,0.0,3.6,20,0.00,,---,0.00,VWS V14.01,2013-08-14 18:02:00,
2013-08-14 12:07:00,78.8,34.4,30.02,NNE,15,0.0,3.6,20,0.00,,---,0.00,VWS V14.01,2013-08-14 18:07:00,
2013-08-14 12:12:00,78.4,31.5,30.02,NNE,16,0.0,3.6,18,0.00,,---,0.00,VWS V14.01,2013-08-14 18:12:00,
2013-08-14 12:17:00,78.8,34.4,30.02,NE,52,0.0,3.6,20,0.00,,---,0.00,VWS V14.01,2013-08-14 18:17:00,
2013-08-14 12:23:00,79.5,35.0,30.02,NNW,331,0.0,3.6,20,0.00,,---,0.00,VWS V14.01,2013-08-14 18:23:00,
2013-08-14 12:28:00,79.2,34.7,30.02,North,357,0.0,3.6,20,0.00,,---,0.00,VWS V14.01,2013-08-14 18:28:00,
2013-08-14 12:33:00,79.5,35.0,30.02,ENE,65,3.1,3.1,20,0.00,,---,0.00,VWS V14.01,2013-08-14 18:33:00,
2013-08-14 12:38:00,80.1,35.4,30.02,NE,49,0.0,3.1,20,0.00,,---,0.00,VWS V14.01,2013-08-14 18:38:00,
2013-08-14 12:43:00,80.6,34.6,30.02,NNE,30,2.7,3.6,19,0.00,,---,0.00,VWS V14.01,2013-08-14 18:43:00,
2013-08-14 12:48:00,81.1,35.0,30.02,North,357,0.0,4.9,19,0.00,,---,0.00,VWS V14.01,2013-08-14 18:48:00,
2013-08-14 12:53:00,81.7,35.5,30.02,North,3,0.0,6.3,19,0.00,,---,0.00,VWS V14.01,2013-08-14 18:53:00,
2013-08-14 12:59:00,82.4,31.8,30.02,NNE,33,0.0,6.3,16,0.00,,---,0.00,VWS V14.01,2013-08-14 18:59:00,
2013-08-14 13:04:00,82.2,33.1,30.02,North,0,2.2,3.1,17,0.00,,---,0.00,VWS V14.01,2013-08-14 19:04:00,
2013-08-14 13:12:00,82.2,33.1,30.02,North,0,0.0,4.0,17,0.00,,---,0.00,VWS V14.01,2013-08-14 19:12:00,
2013-08-14 13:17:00,82.6,31.9,30.02,North,3,0.0,3.6,16,0.00,,---,0.00,VWS V14.01,2013-08-14 19:17:00,
2013-08-14 13:23:00,83.5,32.6,29.99,ENE,65,0.0,3.6,16,0.00,,---,0.00,VWS V14.01,2013-08-14 19:23:00,
2013-08-14 13:28:00,83.8,32.9,29.99,North,3,0.0,4.0,16,0.00,,---,0.00,VWS V14.01,2013-08-14 19:28:00,
2013-08-14 13:33:00,84.2,33.2,29.99,North,11,0.0,2.7,16,0.00,,---,0.00,VWS V14.01,2013-08-14 19:33:00,
2013-08-14 13:38:00,84.2,33.2,29.99,NNE,17,0.0,2.7,16,0.00,,---,0.00,VWS V14.01,2013-08-14 19:38:00,
2013-08-14 13:44:00,84.2,33.2,29.99,ENE,59,0.0,2.7,16,0.00,,---,0.00,VWS V14.01,2013-08-14 19:44:00,
2013-08-14 13:49:00,85.5,34.2,29.99,NE,47,0.0,4.0,16,0.00,,---,0.00,VWS V14.01,2013-08-14 19:49:00,
2013-08-14 13:54:00,85.6,34.3,29.99,NE,51,2.7,4.0,16,0.00,,---,0.00,VWS V14.01,2013-08-14 19:54:00,
2013-08-14 13:59:00,86.7,35.2,29.99,NNE,27,0.0,4.0,16,0.00,,---,0.00,VWS V14.01,2013-08-14 19:59:00,
2013-08-14 14:04:00,86.5,29.9,29.99,NNW,338,0.0,3.1,13,0.00,,---,0.00,VWS V14.01,2013-08-14 20:04:00,
2013-08-14 14:09:00,86.5,35.1,29.99,North,4,0.0,3.1,16,0.00,,---,0.00,VWS V14.01,2013-08-14 20:09:00,
2013-08-14 14:14:00,87.6,30.8,29.99,NNE,30,0.0,4.0,13,0.00,,---,0.00,VWS V14.01,2013-08-14 20:14:00,
2013-08-14 14:21:00,87.1,30.3,29.99,NNE,15,0.0,2.7,13,0.00,,---,0.00,VWS V14.01,2013-08-14 20:21:00,
2013-08-14 14:27:00,87.3,30.5,29.99,North,353,0.0,4.0,13,0.00,,---,0.00,VWS V14.01,2013-08-14 20:27:00,
2013-08-14 14:32:00,88.0,31.0,29.99,NNE,16,0.0,3.6,13,0.00,,---,0.00,VWS V14.01,2013-08-14 20:32:00,
2013-08-14 14:37:00,88.0,31.0,29.99,NNW,340,0.0,3.6,13,0.00,,---,0.00,VWS V14.01,2013-08-14 20:37:00,
2013-08-14 14:42:00,88.3,31.3,29.99,NNE,14,2.7,4.0,13,0.00,,---,0.00,VWS V14.01,2013-08-14 20:42:00,
2013-08-14 14:47:00,88.3,31.3,29.99,North,5,2.7,2.7,13,0.00,,---,0.00,VWS V14.01,2013-08-14 20:47:00,
2013-08-14 14:52:00,88.3,31.3,29.99,NE,53,0.0,3.1,13,0.00,,---,0.00,VWS V14.01,2013-08-14 20:52:00,
2013-08-14 14:57:00,88.7,31.6,29.99,NNE,32,0.0,3.1,13,0.00,,---,0.00,VWS V14.01,2013-08-14 20:57:00,
2013-08-14 15:02:00,89.1,31.9,29.99,NNW,335,2.7,2.7,13,0.00,,---,0.00,VWS V14.01,2013-08-14 21:02:00,
2013-08-14 15:07:00,88.0,31.0,29.96,North,0,0.0,4.0,13,0.00,,---,0.00,VWS V14.01,2013-08-14 21:07:00,
2013-08-14 15:12:00,87.8,30.9,29.96,NNE,19,0.0,4.0,13,0.00,,---,0.00,VWS V14.01,2013-08-14 21:12:00,
2013-08-14 15:17:00,88.9,31.7,29.96,NNE,26,0.0,0.0,13,0.00,,---,0.00,VWS V14.01,2013-08-14 21:17:00,
2013-08-14 15:22:00,89.1,31.9,29.96,North,5,0.0,2.7,13,0.00,,---,0.00,VWS V14.01,2013-08-14 21:22:00,
2013-08-14 15:27:00,89.4,32.2,29.96,North,3,0.0,2.7,13,0.00,,---,0.00,VWS V14.01,2013-08-14 21:27:00,
2013-08-14 15:32:00,90.1,30.7,29.96,North,0,0.0,0.0,12,0.00,,---,0.00,VWS V14.01,2013-08-14 21:32:00,
2013-08-14 15:37:00,90.7,31.2,29.96,WSW,253,0.0,0.0,12,0.00,,---,0.00,VWS V14.01,2013-08-14 21:37:00,
2013-08-14 15:42:00,90.5,31.0,29.96,North,6,0.0,2.2,12,0.00,,---,0.00,VWS V14.01,2013-08-14 21:42:00,
2013-08-14 15:47:00,91.0,31.4,29.96,WNW,302,2.7,2.7,12,0.00,,---,0.00,VWS V14.01,2013-08-14 21:47:00,
2013-08-14 15:52:00,91.0,31.4,29.96,NNE,23,0.0,2.7,12,0.00,,---,0.00,VWS V14.01,2013-08-14 21:52:00,
2013-08-14 15:57:00,91.2,31.6,29.96,NW,316,0.0,2.7,12,0.00,,---,0.00,VWS V14.01,2013-08-14 21:57:00,
2013-08-14 16:02:00,90.5,31.0,29.96,West,265,0.0,2.2,12,0.00,,---,0.00,VWS V14.01,2013-08-14 22:02:00,
2013-08-14 16:07:00,90.3,30.9,29.96,North,353,0.0,2.2,12,0.00,,---,0.00,VWS V14.01,2013-08-14 22:07:00,
2013-08-14 16:12:00,90.5,31.0,29.96,North,357,0.0,2.7,12,0.00,,---,0.00,VWS V14.01,2013-08-14 22:12:00,
2013-08-14 16:17:00,90.9,31.3,29.96,SSW,193,0.0,0.0,12,0.00,,---,0.00,VWS V14.01,2013-08-14 22:17:00,
2013-08-14 16:22:00,91.4,31.7,29.96,North,353,0.0,2.7,12,0.00,,---,0.00,VWS V14.01,2013-08-14 22:22:00,
2013-08-14 16:28:00,92.5,32.5,29.96,NNE,14,0.0,2.7,12,0.00,,---,0.00,VWS V14.01,2013-08-14 22:28:00,
2013-08-14 16:33:00,92.3,32.4,29.96,NNE,14,3.1,3.6,12,0.00,,---,0.00,VWS V14.01,2013-08-14 22:33:00,
2013-08-14 16:38:00,91.9,32.1,29.96,North,4,0.0,3.6,12,0.00,,---,0.00,VWS V14.01,2013-08-14 22:38:00,
2013-08-14 16:43:00,91.2,31.6,29.96,NNE,20,0.0,3.6,12,0.00,,---,0.00,VWS V14.01,2013-08-14 22:43:00,
2013-08-14 16:48:00,91.2,31.6,29.96,NNE,25,2.7,2.7,12,0.00,,---,0.00,VWS V14.01,2013-08-14 22:48:00,
2013-08-14 16:53:00,90.5,31.0,29.93,NNW,343,0.0,3.1,12,0.00,,---,0.00,VWS V14.01,2013-08-14 22:53:00,
2013-08-14 16:58:00,90.7,31.2,29.93,NNE,17,0.0,3.1,12,0.00,,---,0.00,VWS V14.01,2013-08-14 22:58:00,
2013-08-14 17:03:00,91.4,31.7,29.93,North,353,0.0,3.1,12,0.00,,---,0.00,VWS V14.01,2013-08-14 23:03:00,
2013-08-14 17:08:00,91.6,31.9,29.93,NNW,340,0.0,3.1,12,0.00,,---,0.00,VWS V14.01,2013-08-14 23:08:00,
2013-08-14 17:13:00,91.2,31.6,29.93,NW,311,0.0,3.1,12,0.00,,---,0.00,VWS V14.01,2013-08-14 23:13:00,
2013-08-14 17:18:00,89.4,32.2,29.93,NNW,329,0.0,2.7,13,0.00,,---,0.00,VWS V14.01,2013-08-14 23:18:00,
2013-08-14 17:23:00,87.8,30.9,29.93,WNW,290,0.0,2.7,13,0.00,,---,0.00,VWS V14.01,2013-08-14 23:23:00,
2013-08-14 17:28:00,87.3,30.5,29.93,NNE,24,0.0,2.7,13,0.00,,---,0.00,VWS V14.01,2013-08-14 23:28:00,
2013-08-14 17:34:00,87.4,30.6,29.93,NE,41,0.0,0.0,13,0.00,,---,0.00,VWS V14.01,2013-08-14 23:34:00,
2013-08-14 17:38:00,87.4,30.6,29.93,SW,219,0.0,0.0,13,0.00,,---,0.00,VWS V14.01,2013-08-14 23:38:00,
2013-08-14 17:44:00,87.4,30.6,29.93,NW,304,0.0,0.0,13,0.00,,---,0.00,VWS V14.01,2013-08-14 23:44:00,
2013-08-14 17:49:00,86.9,30.2,29.93,North,353,0.0,0.0,13,0.00,,---,0.00,VWS V14.01,2013-08-14 23:49:00,
2013-08-14 17:54:00,86.4,29.8,29.93,North,6,0.0,0.0,13,0.00,,---,0.00,VWS V14.01,2013-08-14 23:54:00,
2013-08-14 17:59:00,86.4,29.8,29.93,North,350,0.0,0.0,13,0.00,,---,0.00,VWS V14.01,2013-08-14 23:59:00,
2013-08-14 18:04:00,86.4,29.8,29.93,NW,324,0.0,0.0,13,0.00,,---,0.00,VWS V14.01,2013-08-15 00:04:00,
2013-08-14 18:09:00,86.4,29.8,29.93,NW,320,0.0,0.0,13,0.00,,---,0.00,VWS V14.01,2013-08-15 00:09:00,
2013-08-14 18:14:00,86.9,30.2,29.93,NNW,333,0.0,0.0,13,0.00,,---,0.00,VWS V14.01,2013-08-15 00:14:00,
2013-08-14 18:19:00,86.9,30.2,29.93,NW,307,0.0,0.0,13,0.00,,---,0.00,VWS V14.01,2013-08-15 00:19:00,
2013-08-14 18:24:00,86.9,30.2,29.93,WNW,288,0.0,0.0,13,0.00,,---,0.00,VWS V14.01,2013-08-15 00:24:00,
2013-08-14 18:29:00,86.9,30.2,29.93,NNW,343,0.0,0.0,13,0.00,,---,0.00,VWS V14.01,2013-08-15 00:29:00,
2013-08-14 18:34:00,84.0,29.8,29.93,NW,313,0.0,2.2,14,0.00,,---,0.00,VWS V14.01,2013-08-15 00:34:00,
2013-08-14 18:39:00,84.0,29.8,29.93,North,0,0.0,2.2,14,0.00,,---,0.00,VWS V14.01,2013-08-15 00:39:00,
2013-08-14 18:44:00,84.0,29.8,29.93,West,270,0.0,2.2,14,0.00,,---,0.00,VWS V14.01,2013-08-15 00:44:00,
2013-08-14 18:49:00,84.0,29.8,29.93,West,273,2.2,2.2,14,0.00,,---,0.00,VWS V14.01,2013-08-15 00:49:00,
2013-08-14 18:54:00,84.0,29.8,29.93,West,273,0.0,3.1,14,0.00,,---,0.00,VWS V14.01,2013-08-15 00:54:00,
2013-08-14 18:59:00,84.0,29.8,29.93,West,281,0.0,3.1,14,0.00,,---,0.00,VWS V14.01,2013-08-15 00:59:00,
2013-08-14 19:04:00,84.0,29.8,29.93,West,281,0.0,0.0,14,0.00,,---,0.00,VWS V14.01,2013-08-15 01:04:00,
2013-08-14 19:09:00,84.0,29.8,29.93,West,281,0.0,0.0,14,0.00,,---,0.00,VWS V14.01,2013-08-15 01:09:00,
2013-08-14 19:14:00,84.0,29.8,29.93,West,281,0.0,0.0,14,0.00,,---,0.00,VWS V14.01,2013-08-15 01:14:00,
2013-08-14 19:19:00,78.4,31.5,29.93,West,279,0.0,0.0,18,0.00,,---,0.00,VWS V14.01,2013-08-15 01:19:00,
2013-08-14 19:24:00,78.1,31.2,29.93,West,279,0.0,0.0,18,0.00,,---,0.00,VWS V14.01,2013-08-15 01:24:00,
2013-08-14 19:29:00,77.7,30.9,29.93,NNW,340,0.0,0.0,18,0.00,,---,0.00,VWS V14.01,2013-08-15 01:29:00,
2013-08-14 19:34:00,77.2,30.4,29.93,NNW,335,0.0,0.0,18,0.00,,---,0.00,VWS V14.01,2013-08-15 01:34:00,
2013-08-14 19:39:00,76.8,30.1,29.93,NNW,335,0.0,0.0,18,0.00,,---,0.00,VWS V14.01,2013-08-15 01:39:00,
2013-08-14 19:44:00,76.6,30.0,29.93,WNW,284,0.0,0.0,18,0.00,,---,0.00,VWS V14.01,2013-08-15 01:44:00,
2013-08-14 19:49:00,76.3,29.7,29.93,WNW,284,0.0,0.0,18,0.00,,---,0.00,VWS V14.01,2013-08-15 01:49:00,
2013-08-14 19:54:00,76.1,29.6,29.93,West,271,0.0,0.0,18,0.00,,---,0.00,VWS V14.01,2013-08-15 01:54:00,
2013-08-14 19:59:00,75.7,24.9,29.93,West,271,0.0,0.0,15,0.00,,---,0.00,VWS V14.01,2013-08-15 01:59:00,
2013-08-14 20:04:00,75.4,29.0,29.93,West,271,0.0,0.0,18,0.00,,---,0.00,VWS V14.01,2013-08-15 02:04:00,
2013-08-14 20:09:00,74.7,28.4,29.93,West,271,0.0,0.0,18,0.00,,---,0.00,VWS V14.01,2013-08-15 02:09:00,
2013-08-14 20:14:00,74.1,27.9,29.93,West,271,0.0,0.0,18,0.00,,---,0.00,VWS V14.01,2013-08-15 02:14:00,
2013-08-14 20:19:00,73.8,31.4,29.93,West,271,0.0,0.0,21,0.00,,---,0.00,VWS V14.01,2013-08-15 02:19:00,
2013-08-14 20:24:00,73.6,31.3,29.93,West,271,0.0,0.0,21,0.00,,---,0.00,VWS V14.01,2013-08-15 02:24:00,
2013-08-14 20:29:00,73.6,31.3,29.93,West,271,0.0,0.0,21,0.00,,---,0.00,VWS V14.01,2013-08-15 02:29:00,
2013-08-14 20:34:00,73.6,31.3,29.93,West,271,0.0,0.0,21,0.00,,---,0.00,VWS V14.01,2013-08-15 02:34:00,
2013-08-14 20:39:00,73.6,31.3,29.93,West,271,0.0,0.0,21,0.00,,---,0.00,VWS V14.01,2013-08-15 02:39:00,
2013-08-14 20:44:00,73.6,31.3,29.93,West,271,0.0,0.0,21,0.00,,---,0.00,VWS V14.01,2013-08-15 02:44:00,
2013-08-14 20:49:00,73.6,31.3,29.93,West,271,0.0,0.0,21,0.00,,---,0.00,VWS V14.01,2013-08-15 02:49:00,
2013-08-14 20:54:00,73.6,31.3,29.93,West,271,0.0,0.0,21,0.00,,---,0.00,VWS V14.01,2013-08-15 02:54:00,
2013-08-14 20:59:00,73.6,31.3,29.93,West,271,0.0,0.0,21,0.00,,---,0.00,VWS V14.01,2013-08-15 02:59:00,
2013-08-14 21:04:00,73.6,31.3,29.93,West,271,0.0,0.0,21,0.00,,---,0.00,VWS V14.01,2013-08-15 03:04:00,
2013-08-14 21:09:00,73.6,31.3,29.93,West,271,0.0,0.0,21,0.00,,---,0.00,VWS V14.01,2013-08-15 03:09:00,
2013-08-14 21:14:00,73.6,31.3,29.93,West,271,0.0,0.0,21,0.00,,---,0.00,VWS V14.01,2013-08-15 03:14:00,
2013-08-14 21:19:00,68.7,32.5,29.93,West,271,0.0,0.0,26,0.00,,---,0.00,VWS V14.01,2013-08-15 03:19:00,
2013-08-14 21:24:00,68.4,33.1,29.93,West,271,0.0,0.0,27,0.00,,---,0.00,VWS V14.01,2013-08-15 03:24:00,
2013-08-14 21:29:00,68.4,33.1,29.93,West,271,0.0,0.0,27,0.00,,---,0.00,VWS V14.01,2013-08-15 03:29:00,
2013-08-14 21:34:00,67.8,35.3,29.93,WSW,254,0.0,0.0,30,0.00,,---,0.00,VWS V14.01,2013-08-15 03:34:00,
2013-08-14 21:39:00,67.5,32.3,29.93,WSW,254,0.0,0.0,27,0.00,,---,0.00,VWS V14.01,2013-08-15 03:39:00,
2013-08-14 21:44:00,67.3,31.2,29.93,WSW,254,0.0,0.0,26,0.00,,---,0.00,VWS V14.01,2013-08-15 03:44:00,
2013-08-14 21:49:00,66.9,31.0,29.93,WSW,254,0.0,0.0,26,0.00,,---,0.00,VWS V14.01,2013-08-15 03:49:00,
2013-08-14 21:54:00,66.7,31.7,29.93,SSE,159,2.7,4.0,27,0.00,,---,0.00,VWS V14.01,2013-08-15 03:54:00,
2013-08-14 21:59:00,65.5,33.3,29.93,SSE,157,0.0,4.0,30,0.00,,---,0.00,VWS V14.01,2013-08-15 03:59:00,
2013-08-14 22:01:00,64.9,32.8,29.93,SSE,157,2.7,2.7,30,0.00,,---,0.00,VWS V14.01,2013-08-15 04:01:00,
2013-08-14 22:06:00,64.4,34.7,29.96,SSE,157,0.0,2.7,33,0.00,,---,0.00,VWS V14.01,2013-08-15 04:06:00,
2013-08-14 22:11:00,64.4,33.1,29.96,SSE,157,0.0,2.7,31,0.00,,---,0.00,VWS V14.01,2013-08-15 04:11:00,
2013-08-14 22:16:00,64.0,32.8,29.96,SSE,157,0.0,0.0,31,0.00,,---,0.00,VWS V14.01,2013-08-15 04:16:00,
2013-08-14 22:21:00,63.7,33.3,29.96,SSE,157,0.0,0.0,32,0.00,,---,0.00,VWS V14.01,2013-08-15 04:21:00,
2013-08-14 22:26:00,63.7,32.5,29.96,SSE,157,0.0,0.0,31,0.00,,---,0.00,VWS V14.01,2013-08-15 04:26:00,
2013-08-14 22:31:00,63.5,32.3,29.96,WSW,253,0.0,2.2,31,0.00,,---,0.00,VWS V14.01,2013-08-15 04:31:00,
2013-08-14 22:36:00,64.0,31.2,29.96,WSW,249,0.0,2.2,29,0.00,,---,0.00,VWS V14.01,2013-08-15 04:36:00,
2013-08-14 22:41:00,64.0,32.0,29.96,WSW,249,0.0,2.2,30,0.00,,---,0.00,VWS V14.01,2013-08-15 04:41:00,
2013-08-14 22:46:00,64.0,32.8,29.96,WSW,249,0.0,0.0,31,0.00,,---,0.00,VWS V14.01,2013-08-15 04:46:00,
2013-08-14 22:51:00,64.0,32.0,29.96,SSW,193,0.0,0.0,30,0.00,,---,0.00,VWS V14.01,2013-08-15 04:51:00,
2013-08-14 22:56:00,63.7,32.5,29.96,South,191,0.0,0.0,31,0.00,,---,0.00,VWS V14.01,2013-08-15 04:56:00,
2013-08-14 23:01:00,62.8,33.3,29.96,South,191,0.0,0.0,33,0.00,,---,0.00,VWS V14.01,2013-08-15 05:01:00,
2013-08-14 23:06:00,62.6,33.1,29.96,South,191,0.0,0.0,33,0.00,,---,0.00,VWS V14.01,2013-08-15 05:06:00,
2013-08-14 23:08:00,62.8,32.5,29.96,South,191,0.0,0.0,32,0.00,,---,0.00,VWS V14.01,2013-08-15 05:08:00,
2013-08-14 23:13:00,63.0,32.7,29.96,SSW,194,0.0,0.0,32,0.00,,---,0.00,VWS V14.01,2013-08-15 05:13:00,
2013-08-14 23:18:00,63.0,33.4,29.96,SSW,199,0.0,0.0,33,0.00,,---,0.00,VWS V14.01,2013-08-15 05:18:00,
2013-08-14 23:23:00,62.6,33.1,29.96,SE,137,2.2,4.0,33,0.00,,---,0.00,VWS V14.01,2013-08-15 05:23:00,
2013-08-14 23:28:00,62.4,32.2,29.96,SE,137,0.0,4.0,32,0.00,,---,0.00,VWS V14.01,2013-08-15 05:28:00,
2013-08-14 23:33:00,62.2,33.5,29.96,SW,229,0.0,3.6,34,0.00,,---,0.00,VWS V14.01,2013-08-15 05:33:00,
2013-08-14 23:38:00,61.9,33.2,29.96,WSW,241,2.7,3.6,34,0.00,,---,0.00,VWS V14.01,2013-08-15 05:38:00,
2013-08-14 23:43:00,61.9,32.5,29.96,WSW,241,0.0,3.6,33,0.00,,---,0.00,VWS V14.01,2013-08-15 05:43:00,
2013-08-14 23:48:00,61.9,31.7,29.96,WSW,241,0.0,0.0,32,0.00,,---,0.00,VWS V14.01,2013-08-15 05:48:00,
2013-08-14 23:53:00,61.7,33.1,29.96,WSW,241,0.0,0.0,34,0.00,,---,0.00,VWS V14.01,2013-08-15 05:53:00,
2013-08-14 23:58:00,61.3,32.8,29.96,SSW,193,0.0,0.0,34,0.00,,---,0.00,VWS V14.01,2013-08-15 05:58:00,